TimeMST,TemperatureF,Dew PointF,Humidity,Sea Level PressureIn,VisibilityMPH,Wind Direction,Wind SpeedMPH,Gust SpeedMPH,PrecipitationIn,Events,Conditions,WindDirDegrees,DateUTC
12:15 AM,30.0,21.7,71,30.32,-9999.0,SSE,8.1,-,N/A,,Clear,150,2013-11-08 07:15:00
12:35 AM,29.1,21.9,74,30.33,-9999.0,SSE,6.9,-,N/A,,Clear,160,2013-11-08 07:35:00
12:55 AM,-9999,-9999,N/A,-9999,-9999.0,North,-9999.0,-,N/A,,Clear,0,2013-11-08 07:55:00
1:15 AM,25.7,21.2,83,30.33,-9999.0,SSE,5.8,-,N/A,,Clear,160,2013-11-08 08:15:00
1:35 AM,25.7,21.0,82,30.33,-9999.0,Calm,Calm,-,N/A,,Unknown,0,2013-11-08 08:35:00
1:55 AM,26.6,21.4,81,30.32,-9999.0,SSW,3.5,-,N/A,,Clear,200,2013-11-08 08:55:00
2:15 AM,28.8,21.7,75,30.32,-9999.0,SE,4.6,-,N/A,,Clear,140,2013-11-08 09:15:00
2:35 AM,-9999,-9999,N/A,30.32,-9999.0,Calm,Calm,-,N/A,,Clear,0,2013-11-08 09:35:00
2:55 AM,-9999,-9999,N/A,30.32,-9999.0,Calm,Calm,-,N/A,,Clear,0,2013-11-08 09:55:00
3:15 AM,26.2,20.3,78,30.31,-9999.0,Calm,Calm,-,N/A,,Clear,0,2013-11-08 10:15:00
3:35 AM,-9999,-9999,N/A,-9999,-9999.0,North,-9999.0,-,N/A,,Unknown,0,2013-11-08 10:35:00
3:55 AM,-9999,-9999,N/A,-9999,-9999.0,North,-9999.0,-,N/A,,Unknown,0,2013-11-08 10:55:00
4:15 AM,-9999,-9999,N/A,30.29,-9999.0,North,-9999.0,-,N/A,,Unknown,0,2013-11-08 11:15:00
4:35 AM,-9999,-9999,N/A,-9999,-9999.0,NNW,5.8,-,N/A,,Unknown,330,2013-11-08 11:35:00
4:55 AM,22.5,19.2,87,30.30,-9999.0,NW,4.6,-,N/A,,Unknown,310,2013-11-08 11:55:00
5:15 AM,21.2,18.5,89,30.30,-9999.0,NW,5.8,-,N/A,,Unknown,310,2013-11-08 12:15:00
5:35 AM,22.8,19.8,88,30.30,-9999.0,WNW,6.9,-,N/A,,Unknown,290,2013-11-08 12:35:00
5:55 AM,22.1,19.0,88,30.30,-9999.0,NW,6.9,-,N/A,,Unknown,320,2013-11-08 12:55:00
6:15 AM,21.4,19.0,91,30.29,-9999.0,WNW,6.9,-,N/A,,Unknown,300,2013-11-08 13:15:00
6:35 AM,22.3,18.9,87,30.30,-9999.0,NW,4.6,-,N/A,,Unknown,310,2013-11-08 13:35:00
6:55 AM,22.1,19.2,89,30.29,-9999.0,NW,5.8,-,N/A,,Unknown,310,2013-11-08 13:55:00
7:15 AM,24.6,20.8,86,30.30,-9999.0,NW,6.9,-,N/A,,Unknown,310,2013-11-08 14:15:00
7:35 AM,25.7,22.1,86,30.30,-9999.0,NW,5.8,-,N/A,,Unknown,320,2013-11-08 14:35:00
7:55 AM,27.5,22.8,83,30.30,-9999.0,NNW,4.6,-,N/A,,Unknown,330,2013-11-08 14:55:00
8:15 AM,30.2,23.2,75,30.30,-9999.0,NNW,4.6,-,N/A,,Clear,340,2013-11-08 15:15:00
8:35 AM,32.7,23.4,68,30.30,-9999.0,NW,4.6,-,N/A,,Clear,320,2013-11-08 15:35:00
8:55 AM,34.9,23.2,62,30.30,-9999.0,NNW,5.8,-,N/A,,Clear,340,2013-11-08 15:55:00
9:15 AM,37.6,23.7,57,30.30,-9999.0,NNW,6.9,-,N/A,,Clear,330,2013-11-08 16:15:00
9:35 AM,40.1,23.7,52,30.30,-9999.0,NNW,9.2,-,N/A,,Clear,330,2013-11-08 16:35:00
9:55 AM,-9999,-9999,N/A,30.30,-9999.0,NNW,6.9,-,N/A,,Clear,330,2013-11-08 16:55:00
10:15 AM,44.6,20.8,39,30.29,-9999.0,NNW,3.5,-,N/A,,Clear,330,2013-11-08 17:15:00
10:35 AM,47.3,20.8,35,30.28,-9999.0,NW,3.5,-,N/A,,Clear,310,2013-11-08 17:35:00
10:55 AM,48.7,21.9,35,30.28,-9999.0,NW,5.8,-,N/A,,Clear,310,2013-11-08 17:55:00
11:15 AM,51.1,23.0,33,30.26,-9999.0,NNW,3.5,-,N/A,,Clear,330,2013-11-08 18:15:00
11:35 AM,53.8,23.7,31,30.26,-9999.0,NNW,5.8,-,N/A,,Clear,330,2013-11-08 18:35:00
11:55 AM,54.7,23.2,29,30.24,-9999.0,NNW,5.8,-,N/A,,Clear,340,2013-11-08 18:55:00
12:15 PM,56.7,23.5,28,30.22,-9999.0,North,5.8,-,N/A,,Clear,10,2013-11-08 19:15:00
12:35 PM,-9999,-9999,N/A,-9999,-9999.0,North,-9999.0,-,N/A,,Clear,0,2013-11-08 19:35:00
12:55 PM,59.5,23.0,25,30.19,-9999.0,NW,3.5,-,N/A,,Unknown,320,2013-11-08 19:55:00
1:15 PM,-9999,-9999,N/A,30.18,-9999.0,North,-9999.0,-,N/A,,Unknown,0,2013-11-08 20:15:00
1:35 PM,-9999,-9999,N/A,-9999,-9999.0,North,-9999.0,-,N/A,,Unknown,0,2013-11-08 20:35:00
1:55 PM,61.5,21.7,22,30.16,-9999.0,Calm,Calm,-,N/A,,Unknown,0,2013-11-08 20:55:00
2:15 PM,-9999,-9999,N/A,-9999,-9999.0,North,-9999.0,-,N/A,,Unknown,0,2013-11-08 21:15:00
2:35 PM,-9999,-9999,N/A,-9999,-9999.0,North,-9999.0,-,N/A,,Unknown,0,2013-11-08 21:35:00
2:55 PM,-9999,-9999,N/A,-9999,-9999.0,North,-9999.0,-,N/A,,Unknown,0,2013-11-08 21:55:00
3:15 PM,-9999,-9999,N/A,-9999,-9999.0,North,-9999.0,-,N/A,,Unknown,0,2013-11-08 22:15:00
3:35 PM,-9999,-9999,N/A,-9999,-9999.0,North,-9999.0,-,N/A,,Unknown,0,2013-11-08 22:35:00
3:55 PM,-9999,-9999,N/A,-9999,-9999.0,North,-9999.0,-,N/A,,Unknown,0,2013-11-08 22:55:00
4:15 PM,-9999,-9999,N/A,-9999,-9999.0,North,-9999.0,-,N/A,,Unknown,0,2013-11-08 23:15:00
4:35 PM,-9999,-9999,N/A,-9999,-9999.0,North,-9999.0,-,N/A,,Unknown,0,2013-11-08 23:35:00
4:55 PM,55.8,19.9,25,30.14,-9999.0,West,5.8,-,N/A,,Unknown,260,2013-11-08 23:55:00
5:15 PM,-9999,-9999,N/A,-9999,-9999.0,North,-9999.0,-,N/A,,Unknown,0,2013-11-09 00:15:00
5:35 PM,-9999,-9999,N/A,-9999,-9999.0,North,-9999.0,-,N/A,,Unknown,0,2013-11-09 00:35:00
5:55 PM,48.6,20.3,33,30.16,-9999.0,North,-9999.0,-,N/A,,Unknown,0,2013-11-09 00:55:00
6:15 PM,47.8,19.6,33,30.17,-9999.0,WSW,9.2,-,N/A,,Unknown,250,2013-11-09 01:15:00
6:35 PM,-9999,-9999,N/A,30.18,-9999.0,WSW,9.2,-,N/A,,Unknown,250,2013-11-09 01:35:00
6:55 PM,48.0,19.2,32,30.18,-9999.0,WSW,12.7,-,N/A,,Clear,250,2013-11-09 01:55:00
7:15 PM,47.7,19.0,32,30.18,-9999.0,WSW,11.5,-,N/A,,Clear,250,2013-11-09 02:15:00
7:35 PM,46.8,18.9,33,30.20,-9999.0,NW,4.6,-,N/A,,Clear,320,2013-11-09 02:35:00
7:55 PM,40.8,19.4,42,30.20,-9999.0,NW,4.6,-,N/A,,Clear,320,2013-11-09 02:55:00
8:15 PM,-9999,-9999,N/A,30.20,-9999.0,NNW,4.6,-,N/A,,Clear,340,2013-11-09 03:15:00
8:35 PM,-9999,-9999,N/A,-9999,-9999.0,North,-9999.0,-,N/A,,Unknown,0,2013-11-09 03:35:00
8:55 PM,-9999,-9999,N/A,30.21,-9999.0,North,-9999.0,-,N/A,,Unknown,0,2013-11-09 03:55:00
9:15 PM,-9999,-9999,N/A,-9999,-9999.0,North,-9999.0,-,N/A,,Unknown,0,2013-11-09 04:15:00
9:35 PM,-9999,-9999,N/A,-9999,-9999.0,North,-9999.0,-,N/A,,Unknown,0,2013-11-09 04:35:00
9:55 PM,-9999,-9999,N/A,-9999,-9999.0,North,-9999.0,-,N/A,,Unknown,0,2013-11-09 04:55:00
10:15 PM,-9999,-9999,N/A,-9999,-9999.0,North,-9999.0,-,N/A,,Unknown,0,2013-11-09 05:15:00
10:35 PM,-9999,-9999,N/A,-9999,-9999.0,North,-9999.0,-,N/A,,Unknown,0,2013-11-09 05:35:00
10:55 PM,-9999,-9999,N/A,-9999,-9999.0,North,-9999.0,-,N/A,,Unknown,0,2013-11-09 05:55:00
11:15 PM,-9999,-9999,N/A,-9999,-9999.0,North,-9999.0,-,N/A,,Unknown,0,2013-11-09 06:15:00
11:35 PM,30.6,20.8,67,30.23,-9999.0,Calm,Calm,-,N/A,,Unknown,0,2013-11-09 06:35:00
11:55 PM,30.4,20.3,66,30.23,-9999.0,WNW,3.5,-,N/A,,Unknown,300,2013-11-09 06:55:00